カタログに戻る

NAVSTAR 33

USA 92

運用中ナビゲーションMEO
NORAD 22700·PAYLOAD·🇺🇸 United States

打ち上げ Jun 26, 1993 から Cape Canaveral Space Force Station

Loading…

次のパス (今後24時間)

TLE

経年Source: Space-Track

元期: Aug 29, 2026, 05:01 UTC

1 22700U 93042A   26241.20921500  .00000025  00000-0  00000+0 0  9999
2 22700  54.7137 166.4280 0013035  35.9107  74.2466  1.89431900238517

AllMySatでNAVSTAR 33をリアルタイム追跡

Download on the App Store